[[{"header":{"parameterUnit":"m.s-1","parameterCategory":1,"la1":30.2991,"la2":30.254,"lo1":-89.0895,"lo2":-89.0444,"dy":0.0017,"dx":0.0017,"nx":28,"ny":28,"refTime":"2023-09-09T09:00:00:Z","depth":0,"parameterNumber":2,"parameterNumberName":"U-component_of_WINDS"},"data":[0,0,0,0,0,0,0,0,0,0,0,0,0,0,0,0,0,0,0,0,0,0,0,0,0,0,0,0,0,0,0,0,0,0,0,0,0,0,0,0,0,0,0,0,0,0,0,0,0,0,0,0,0,0,0,0,0,0,-0.0286,-0.0285,0,-0.0207,-0.0206,-0.0205,-0.0163,-0.0163,-0.0162,-0.0162,-0.0081,-0.0079,-0.0077,0,0,0,0,0,0,0,0,0,0,0,0,0,-0.0398,-0.0396,-0.0286,-0.0285,-0.0284,-0.0207,-0.0206,-0.0205,-0.0163,-0.0163,-0.0162,-0.0162,-0.0082,-0.008,-0.0077,0,0,0,0,0,0,0,0,0,0,0,0,0,-0.0338,-0.0396,-0.0286,-0.0253,-0.025,-0.0208,-0.0206,-0.0205,-0.0163,-0.0163,-0.0162,-0.0162,-0.0083,-0.008,-0.0077,-0.0061,0,0,-0.0067,-0.0066,0,0,0,0,0,0,0,0,-0.0341,-0.0334,-0.0259,-0.0255,-0.0251,-0.0195,-0.0216,-0.0157,-0.0163,-0.0196,-0.0162,-0.0162,-0.0119,-0.0113,-0.0099,-0.0057,-0.0054,-0.0067,-0.0065,-0.0064,-0.0063,0,0,0,0,0,0,0,-0.0345,-0.0337,-0.0255,-0.0258,-0.0253,-0.0243,-0.0234,-0.0205,-0.0159,-0.0193,-0.0189,-0.0181,-0.0117,-0.0102,-0.0097,-0.0053,-0.0067,-0.0065,-0.0063,-0.0061,0.0005,0.0005,0,0,0,0,0,0,-0.0355,-0.034,-0.0257,-0.0252,-0.0297,-0.0241,-0.0231,-0.0213,-0.0159,-0.0151,-0.0181,-0.0179,-0.0107,-0.01,-0.0094,-0.0072,-0.0064,-0.0061,-0.0059,0.0005,0.0005,0.0005,0,0,0,0,0,0,-0.0357,-0.0348,-0.026,-0.0295,-0.0283,-0.0239,-0.0219,-0.0211,-0.0196,-0.0151,-0.0142,-0.0174,-0.0107,-0.0098,-0.007,-0.0069,-0.006,-0.0057,0.0005,0.0005,0.0005,-0.0029,0,0,0,0,0,0,-0.0361,-0.0349,-0.0343,-0.0296,-0.0282,-0.0238,-0.0219,-0.021,-0.0191,-0.0188,-0.0142,-0.0134,-0.0106,-0.0075,-0.0067,-0.0064,-0.0055,0.0005,0.0005,0.0005,-0.0028,-0.003,-0.0032,0,0,0,0,0,-0.0365,-0.0355,-0.0342,-0.0333,-0.0273,-0.0238,-0.023,-0.0198,-0.0191,-0.0184,-0.0155,-0.0135,-0.007,-0.0072,-0.0063,-0.0059,0.0005,0.0005,0.0005,-0.0027,-0.003,-0.0032,0,0,0,0,0,0,-0.0403,-0.0348,-0.0334,-0.0308,-0.0278,-0.0231,-0.0221,-0.0202,-0.0173,-0.0172,-0.0133,-0.0123,-0.0099,-0.0076,-0.0079,-0.0042,-0.003,-0.0029,-0.0058,-0.006,-0.0062,-0.0068,-0.0052,0,0,0,0,0,-0.0408,-0.0384,-0.0338,-0.032,-0.0305,-0.0266,-0.025,-0.0228,-0.0195,-0.0182,-0.0151,-0.012,-0.0092,-0.0075,-0.0047,-0.0024,-0.0014,-0.0017,-0.002,-0.0022,-0.0021,-0.0008,-0.0009,0.0004,0.0004,0.0004,0,0,-0.0419,-0.0386,-0.0373,-0.0326,-0.0301,-0.0277,-0.0256,-0.0231,-0.0214,-0.0178,-0.015,-0.0126,-0.0089,-0.0064,-0.0051,-0.0044,-0.0022,-0.0022,-0.0024,-0.0022,-0.0008,-0.001,-0.0011,0.0004,0.0004,0.0004,0,0,-0.0426,-0.0399,-0.0381,-0.0356,-0.0317,-0.0291,-0.0287,-0.0243,-0.0226,-0.0197,-0.017,-0.0148,-0.0101,-0.0076,-0.0057,-0.0056,-0.0037,-0.0048,-0.006,-0.0048,-0.0049,-0.005,-0.005,-0.0051,-0.0047,-0.0047,-0.0047,0,-0.0444,-0.0408,-0.0374,-0.0352,-0.0332,-0.03,-0.0282,-0.0259,-0.0213,-0.02,-0.0193,-0.0134,-0.0107,-0.0076,-0.0075,-0.0061,-0.0055,-0.0053,-0.0052,-0.0052,-0.0052,-0.0052,-0.0052,-0.0049,-0.0049,-0.0048,-0.0048,0,-0.0432,-0.0408,-0.0398,-0.0355,-0.0334,-0.0314,-0.0278,-0.0261,-0.0241,-0.0216,-0.0187,-0.0153,-0.0118,-0.0109,-0.0089,-0.0075,-0.0072,-0.0059,-0.0047,-0.0056,-0.0055,-0.0055,-0.0051,-0.0051,-0.005,-0.005,0,0,-0.0461,-0.04,-0.0398,-0.0378,-0.0333,-0.0313,-0.0292,-0.0258,-0.0245,-0.0214,-0.0196,-0.0157,-0.0145,-0.0123,-0.01,-0.009,-0.0092,-0.0077,-0.0076,-0.0082,-0.0075,-0.0086,-0.0087,-0.0079,-0.0079,-0.0079,-0.0079,0,-0.0463,-0.0423,-0.0393,-0.0364,-0.0341,-0.031,-0.0292,-0.0262,-0.0239,-0.0216,-0.0189,-0.0163,-0.0148,-0.0135,-0.0123,-0.0094,-0.009,-0.0094,-0.0061,-0.0061,-0.0072,-0.0086,-0.0097,-0.0099,-0.0078,-0.0078,-0.0078,0,-0.0459,-0.0431,-0.04,-0.0359,-0.0348,-0.0332,-0.0299,-0.0277,-0.0243,-0.0226,-0.0203,-0.018,-0.0156,-0.0146,-0.0113,-0.0116,-0.0101,-0.0085,-0.0084,-0.008,-0.007,-0.0083,-0.0098,-0.0099,-0.0077,-0.0077,-0.0077,0,-0.0484,-0.0438,-0.0414,-0.0398,-0.0349,-0.0338,-0.0317,-0.0283,-0.0265,-0.0236,-0.0224,-0.0193,-0.0175,-0.0152,-0.012,-0.0116,-0.0091,-0.0078,-0.0077,-0.0078,-0.0073,-0.0074,-0.0087,-0.0063,-0.0063,-0.0063,-0.0063,0,-0.0489,-0.0472,-0.0425,-0.041,-0.039,-0.0355,-0.0336,-0.0313,-0.0283,-0.0263,-0.0234,-0.0216,-0.0176,-0.0153,-0.0128,-0.0105,-0.0098,-0.0084,-0.0077,-0.0087,-0.0089,-0.0077,-0.0076,-0.0063,-0.0063,-0.0063,-0.0063,0,-0.0514,-0.0481,-0.0453,-0.0409,-0.0397,-0.0385,-0.0347,-0.0332,-0.0306,-0.0282,-0.0274,-0.0234,-0.0206,-0.0173,-0.0133,-0.0117,-0.0096,-0.0086,-0.0108,-0.0104,-0.0105,-0.0106,-0.0112,-0.0111,-0.0087,-0.0087,-0.0087,0,-0.052,-0.0506,-0.046,-0.0445,-0.0425,-0.0401,-0.0383,-0.0348,-0.033,-0.0291,-0.0281,-0.025,-0.0224,-0.0181,-0.0149,-0.0119,-0.0108,-0.0112,-0.0104,-0.0114,-0.0109,-0.0111,-0.011,-0.0115,-0.0115,-0.0116,-0.0116,0,-0.0534,-0.0518,-0.0493,-0.0462,-0.0441,-0.0415,-0.0388,-0.0377,-0.0337,-0.0318,-0.0289,-0.0269,-0.023,-0.02,-0.0166,-0.0144,-0.0124,-0.0119,-0.0117,-0.0127,-0.014,-0.0134,-0.0115,-0.0119,-0.0119,-0.0119,-0.0118,-0.0118,-0.0549,-0.0536,-0.0502,-0.0475,-0.0451,-0.0426,-0.041,-0.0383,-0.0358,-0.0324,-0.0305,-0.0277,-0.0244,-0.0196,-0.0175,-0.0153,-0.0145,-0.0143,-0.0142,-0.0142,-0.0145,-0.0144,-0.0146,-0.0146,-0.0146,-0.0146,-0.0146,0,-0.0562,-0.0539,-0.0514,-0.0478,-0.0456,-0.0439,-0.0408,-0.0392,-0.0367,-0.0338,-0.0314,-0.0281,-0.0253,-0.0218,-0.0188,-0.0176,-0.0166,-0.0169,-0.017,-0.0166,-0.0153,-0.0158,-0.0178,-0.0178,-0.0178,-0.0178,-0.0178,-0.0178,-0.0567,-0.0543,-0.0524,-0.0489,-0.0466,-0.0438,-0.0422,-0.04,-0.0376,-0.0341,-0.0318,-0.0296,-0.0265,-0.0232,-0.0205,-0.0196,-0.0186,-0.0192,-0.018,-0.0169,-0.0166,-0.0164,-0.0168,-0.019,-0.019,-0.0195,-0.0195,-0.0195]},{"header":{"parameterUnit":"m.s-1","parameterCategory":1,"la1":30.2991,"la2":30.254,"lo1":-89.0895,"lo2":-89.0444,"dy":0.0017,"dx":0.0017,"nx":28,"ny":28,"refTime":"2023-09-09T09:00:00:Z","depth":0,"parameterNumber":3,"parameterNumberName":"V-component_of_WINDS"},"data":[0,0,0,0,0,0,0,0,0,0,0,0,0,0,0,0,0,0,0,0,0,0,0,0,0,0,0,0,0,0,0,0,0,0,0,0,0,0,0,0,0,0,0,0,0,0,0,0,0,0,0,0,0,0,0,0,0,0,2.5966,2.5964,0,2.5849,2.5848,2.5846,2.5791,2.5791,2.5791,2.5791,2.5664,2.5661,2.5657,0,0,0,0,0,0,0,0,0,0,0,0,0,2.6133,2.613,2.5966,2.5964,2.5963,2.5849,2.5848,2.5846,2.5791,2.5791,2.5791,2.5791,2.5665,2.5661,2.5657,0,0,0,0,0,0,0,0,0,0,0,0,0,2.6042,2.6129,2.5966,2.5922,2.5917,2.585,2.5848,2.5846,2.5791,2.5791,2.5791,2.5791,2.5666,2.5661,2.5656,2.5622,0,0,2.564,2.5638,0,0,0,0,0,0,0,0,2.6048,2.6036,2.593,2.5925,2.5919,2.5835,2.586,2.577,2.5791,2.5838,2.5791,2.5791,2.572,2.5711,2.5688,2.5616,2.561,2.564,2.5637,2.5635,2.5633,0,0,0,0,0,0,0,2.6054,2.6041,2.5919,2.5928,2.5922,2.5905,2.5892,2.5843,2.578,2.5834,2.583,2.5817,2.5717,2.5693,2.5685,2.5609,2.564,2.5635,2.5632,2.563,2.5501,2.55,0,0,0,0,0,0,2.6068,2.6047,2.5923,2.5916,2.5985,2.5902,2.5888,2.5861,2.578,2.5768,2.5817,2.5815,2.5702,2.5691,2.568,2.5634,2.5635,2.563,2.5627,2.5501,2.5501,2.55,0,0,0,0,0,0,2.6072,2.6058,2.5928,2.598,2.5962,2.5899,2.587,2.5859,2.5835,2.5768,2.5755,2.5805,2.5702,2.5687,2.5637,2.5629,2.5627,2.5623,2.5501,2.5501,2.55,2.5542,0,0,0,0,0,0,2.6077,2.606,2.6048,2.598,2.596,2.5889,2.5869,2.5857,2.5827,2.5824,2.5753,2.5741,2.5701,2.5645,2.5632,2.5621,2.5619,2.5502,2.5501,2.5501,2.5541,2.5543,2.5544,0,0,0,0,0,2.6084,2.6063,2.6048,2.6033,2.5944,2.5889,2.5877,2.5833,2.5827,2.5813,2.577,2.5743,2.5632,2.564,2.5625,2.5613,2.5502,2.5501,2.5501,2.554,2.5542,2.5544,0,0,0,0,0,0,2.6128,2.6053,2.6035,2.5993,2.5948,2.588,2.5861,2.5837,2.5791,2.5789,2.5734,2.5718,2.5673,2.5637,2.5648,2.5575,2.5564,2.556,2.5599,2.5601,2.5603,2.5612,2.5614,0,0,0,0,0,2.6134,2.6098,2.6033,2.6001,2.598,2.5925,2.5899,2.5869,2.5819,2.5799,2.5752,2.5703,2.5656,2.5627,2.558,2.5535,2.5518,2.5519,2.5521,2.5523,2.552,2.5492,2.5492,2.5498,2.5498,2.5498,0,0,2.6143,2.6098,2.6078,2.6009,2.5971,2.5932,2.5909,2.5869,2.5839,2.5792,2.5743,2.5706,2.5647,2.5599,2.5576,2.5569,2.5515,2.5522,2.5524,2.552,2.5492,2.5491,2.5491,2.5497,2.5497,2.5497,0,0,2.6142,2.6104,2.6074,2.6036,2.598,2.5943,2.5936,2.5871,2.5846,2.5796,2.576,2.5722,2.5644,2.5603,2.5572,2.5555,2.5528,2.5541,2.555,2.5524,2.5523,2.5522,2.5515,2.5513,2.5538,2.5538,2.5538,0,2.616,2.6104,2.606,2.6023,2.5993,2.5951,2.5918,2.5883,2.5813,2.5792,2.5786,2.5687,2.5644,2.5586,2.5582,2.5559,2.5547,2.5548,2.5527,2.5526,2.5525,2.5517,2.5515,2.554,2.554,2.554,2.554,0,2.6129,2.609,2.6071,2.6008,2.5975,2.594,2.5889,2.5861,2.5834,2.5798,2.5746,2.5693,2.5636,2.5619,2.5592,2.5557,2.5554,2.5538,2.5526,2.5527,2.5519,2.5515,2.5543,2.5542,2.5542,2.5541,0,0,2.6151,2.6065,2.6059,2.6029,2.5964,2.5931,2.5893,2.5839,2.5816,2.5769,2.5734,2.5669,2.5654,2.5619,2.5586,2.5563,2.5552,2.555,2.5548,2.5551,2.5509,2.5521,2.5518,2.5534,2.5534,2.5533,2.5513,0,2.614,2.6073,2.6033,2.5982,2.5944,2.5904,2.587,2.5825,2.579,2.5751,2.571,2.5665,2.5649,2.5628,2.5603,2.5559,2.5542,2.556,2.5499,2.5498,2.5515,2.5514,2.5526,2.551,2.551,2.5509,2.5509,0,2.6118,2.6074,2.602,2.5958,2.5941,2.5912,2.5859,2.5823,2.577,2.5745,2.5707,2.5674,2.563,2.5623,2.556,2.5573,2.5545,2.552,2.5518,2.551,2.5503,2.5505,2.5504,2.5502,2.5504,2.5504,2.5504,0,2.6139,2.6066,2.6024,2.6,2.5928,2.5908,2.5876,2.5824,2.5794,2.5746,2.5726,2.5673,2.5644,2.5602,2.5555,2.5555,2.5497,2.5486,2.5473,2.5474,2.5462,2.5463,2.5456,2.5446,2.5446,2.5446,2.5446,0,2.613,2.6098,2.6033,2.6007,2.5969,2.5922,2.5885,2.585,2.5803,2.5768,2.5729,2.5696,2.5637,2.5595,2.5558,2.5511,2.5498,2.5476,2.5466,2.5479,2.5481,2.5459,2.5459,2.5446,2.5446,2.5446,2.5446,0,2.6147,2.6103,2.6054,2.599,2.5973,2.5948,2.5891,2.5863,2.5826,2.5781,2.5768,2.5709,2.5658,2.5608,2.5539,2.5514,2.5467,2.5455,2.5486,2.5481,2.5471,2.5472,2.5448,2.5442,2.5438,2.5438,2.5438,0,2.6144,2.6119,2.6052,2.6027,2.5997,2.5957,2.5926,2.5878,2.5848,2.5786,2.5764,2.5712,2.5667,2.5588,2.5537,2.5484,2.5469,2.5464,2.5461,2.5474,2.5468,2.547,2.5466,2.5466,2.5466,2.5466,2.5467,0,2.6143,2.6122,2.6082,2.6033,2.5998,2.5957,2.5914,2.5895,2.5838,2.5805,2.5754,2.572,2.5651,2.5598,2.554,2.5504,2.5475,2.5469,2.5463,2.5475,2.5494,2.5483,2.549,2.5469,2.5469,2.5469,2.5468,2.5468,2.6149,2.6124,2.6074,2.6029,2.5993,2.5953,2.5924,2.5884,2.5842,2.5784,2.5757,2.5706,2.5652,2.557,2.5535,2.5493,2.5485,2.5477,2.5474,2.5473,2.5475,2.5502,2.5482,2.5481,2.5481,2.5481,2.5481,0,2.6145,2.6111,2.6071,2.6013,2.5977,2.5956,2.5907,2.5878,2.5835,2.5788,2.5745,2.5687,2.5635,2.5581,2.5526,2.5502,2.5488,2.5489,2.549,2.5482,2.5486,2.5496,2.5502,2.5502,2.5502,2.5502,2.5502,2.5502,2.6139,2.6096,2.607,2.6007,2.5972,2.5924,2.5898,2.5861,2.5823,2.576,2.5719,2.5685,2.5634,2.5575,2.5526,2.5511,2.5492,2.5498,2.5479,2.5483,2.5482,2.548,2.549,2.5494,2.5494,2.5478,2.5478,2.5478]}]]